Flag for Austria Weather past 2 weeks in Knittelfeld, Styria, Austria

Now
59 °F

Partly sunny.


Feels Like: 59 °F
Forecast: 48 / 58 °F
Wind: 1 mph from North

Location: Zeltweg

Current Time: Sep 4, 2015 at 10:48:05 AM

Latest Report: Sep 4, 2015 at 9:50 AM


Visibility: 25 mi

Pressure: 30.04 "Hg (27.84 "Hg at 641m altitude)

Humidity: 72%

Dew point: 50 °F

Location of KnittelfeldLocation

Historic Weather in Knittelfeld — Graph

°F

Knittelfeld temperature yesterday

Maximum temperature yesterday: 72 °F (at 3:50 PM)
Minimum temperature yesterday: 57 °F (at 7:50 AM)
Average temperature yesterday: 64 °F

Past Weeks' High & Low Weather Summary

 TemperatureHumidityPressure
High90 °F (Aug 29, 4:50 PM)100% (Aug 21, 7:50 AM)30.33 "Hg (Aug 21, 7:50 AM)
Low48 °F (Aug 23, 6:50 AM)21% (Aug 30, 3:20 PM)29.83 "Hg (Sep 1, 6:20 PM)
Average67 °F66%30.09 "Hg
* Reported Aug 20 9:20 AM — Sep 4 9:20 AM, Knittelfeld, Weather by CustomWeather, © 2015

Note: Actual official high and low records may vary slightly from our data, if they occured in-between our weather recording intervals... More about our weather records

Advertising

Knittelfeld weather history for previous 24 hours

 ConditionsComfort  
Time TempWeatherWind HumidityBarometerVisibility
9:20 AM
Fri, Sep 4
57 °FPartly sunny.3 mph77%30.04 "Hg31 mi
8:50 AM57 °FPartly sunny.2 mph77%30.04 "Hg31 mi
8:20 AM57 °FScattered clouds.2 mph77%30.01 "Hg31 mi
7:50 AM55 °FScattered clouds.3 mph88%30.01 "Hg31 mi
7:20 AM55 °FPassing clouds.No wind94%30.01 "Hg31 mi
6:50 AM54 °FPassing clouds.2 mph88%30.01 "Hg31 mi
5:50 AM54 °FPartly cloudy.2 mph94%29.98 "Hg12 mi
10:50 PM
Thu, Sep 3
59 °FPartly cloudy.3 mph94%29.92 "Hg5 mi
9:50 PM61 °FPartly cloudy.3 mph88%29.92 "Hg5 mi
8:50 PM63 °FPartly cloudy.2 mph83%29.92 "Hg5 mi
7:50 PM64 °FBroken clouds.6 mph78%29.89 "Hg12 mi
7:20 PM66 °FBroken clouds.5 mph73%29.89 "Hg12 mi
6:50 PM66 °FBroken clouds.7 mph73%29.89 "Hg12 mi
6:20 PM68 °FBroken clouds.9 mph69%29.89 "Hg12 mi
5:50 PM70 °FBroken clouds.8 mph64%29.89 "Hg12 mi
5:20 PM70 °FPartly sunny.6 mph69%29.89 "Hg12 mi
4:50 PM70 °FPartly sunny.5 mph64%29.89 "Hg12 mi
4:20 PM70 °FPartly sunny.6 mph69%29.92 "Hg12 mi
3:50 PM72 °FPartly sunny.2 mph61%29.92 "Hg12 mi
3:20 PM70 °FPartly sunny.2 mph64%29.92 "Hg12 mi
2:50 PM68 °FBroken clouds.6 mph69%29.95 "Hg12 mi
2:20 PM68 °FBroken clouds.5 mph69%29.95 "Hg12 mi
1:50 PM68 °FBroken clouds.1 mph69%29.95 "Hg12 mi
1:20 PM66 °FPartly sunny.2 mph68%29.95 "Hg12 mi
12:50 PM66 °FPartly sunny.1 mph73%29.98 "Hg12 mi
12:20 PM66 °FPartly sunny.2 mph68%29.98 "Hg12 mi
11:50 AM64 °FPartly sunny.1 mph78%29.98 "Hg9 mi
11:20 AM64 °FPartly sunny.1 mph78%30.01 "Hg9 mi
10:50 AM63 °FPartly sunny.2 mph77%29.98 "Hg9 mi
10:20 AM61 °FPartly sunny.2 mph94%30.01 "Hg9 mi
Weather by CustomWeather, © 2015

See weather overviewHow to use our weather pages